Home   Weather   Ravensburg   Past weeks

Flag for Germany Past Weather in Ravensburg, Baden-Württemberg, Germany — Yesterday and Last 2 Weeks

Now
59 °F

Clear.


Feels Like: 57 °F
Forecast: 32 / 48 °F
Wind: 12 mph from West

Location: Friedrichshafen Airport

Current Time: Feb 23, 2017 at 7:58:16 pm

Latest Report: Feb 23, 2017 at 7:20 pm


Visibility: 10 mi

Pressure: 29.59 "Hg

Humidity: 36%

Dew Point: 32 °F

Location of RavensburgLocation

Past Weather in Ravensburg — Graph

°F

Ravensburg Temperature Yesterday

Maximum temperature yesterday: 54 °F (at 1:20 pm)
Minimum temperature yesterday: 46 °F (at 6:20 pm)
Average temperature yesterday: 49 °F

High & Low Weather Summary for the Past Weeks

 TemperatureHumidityPressure
High64 °F (Feb 23, 4:20 pm)100% (Feb 11, 3:20 am)30.60 "Hg (Feb 11, 3:20 am)
Low23 °F (Feb 15, 4:50 am)28% (Feb 23, 4:20 pm)29.56 "Hg (Feb 23, 5:20 pm)
Average37 °F88%30.23 "Hg
* Reported Feb 8 6:20 pm — Feb 23 6:20 pm, Ravensburg, Weather by CustomWeather, © 2017

Note: Actual official high and low records may vary slightly from our data, if they occured in-between our weather recording intervals... More about our weather records

Advertising

Ravensburg Weather History for the Previous 24 Hours

Scroll right to see more
 ConditionsComfort  
Time TempWeatherWind HumidityBarometerVisibility
6:20 pm
Thu, Feb 23
61 °FClear.17 mph31%29.59 "Hg10 mi
5:50 pm61 °FSunny.17 mph31%29.59 "Hg10 mi
5:20 pm63 °FSunny.23 mph30%29.56 "Hg10 mi
4:20 pm64 °FSunny.20 mph28%29.59 "Hg10 mi
3:50 pm63 °FSunny.9 mph39%29.62 "Hg10 mi
3:20 pm61 °FSunny.14 mph39%29.62 "Hg10 mi
2:50 pm61 °FSunny.20 mph39%29.65 "Hg10 mi
2:20 pm55 °FPassing clouds.9 mph55%29.68 "HgN/A
1:20 pm61 °FPassing clouds.6 mph45%29.71 "HgN/A
12:50 pm55 °FPassing clouds.6 mph55%29.74 "HgN/A
12:20 pm54 °FPassing clouds.5 mph63%29.77 "HgN/A
11:20 am50 °FSunny.6 mph71%29.80 "Hg10 mi
10:50 am50 °FSunny.3 mph71%29.80 "Hg10 mi
10:20 am48 °FSunny.5 mph76%29.83 "Hg10 mi
9:50 am48 °FSunny.3 mph82%29.83 "Hg10 mi
9:20 am50 °FSunny.1 mph76%29.83 "Hg10 mi
8:50 am45 °FSunny.2 mph93%29.86 "Hg10 mi
7:50 am37 °FSunny.3 mph100%29.89 "Hg10 mi
7:20 am39 °FSunny.1 mph93%29.89 "Hg10 mi
6:50 am39 °FClear.2 mph100%29.89 "Hg10 mi
6:20 am41 °FClear.5 mph93%29.92 "Hg10 mi
5:20 am39 °FClear.5 mph100%29.92 "Hg10 mi
4:55 am41 °FClear.8 mph93%29.92 "Hg10 mi
4:20 am43 °FClear.7 mph87%29.95 "Hg10 mi
3:50 am43 °FClear.6 mph87%29.95 "Hg10 mi
3:20 am41 °FClear.6 mph93%29.95 "Hg10 mi
2:50 am39 °FClear.7 mph100%29.95 "Hg10 mi
1:57 am43 °FClear.9 mph87%29.98 "Hg10 mi
1:20 am43 °FPartly cloudy.9 mph93%29.98 "HgN/A
12:50 am45 °FOvercast.9 mph87%29.98 "HgN/A
12:20 am45 °FOvercast.10 mph87%29.98 "HgN/A
12:10 am46 °FMostly cloudy.10 mph82%29.98 "HgN/A
11:59 pm
Wed, Feb 22
46 °FMostly cloudy.8 mph82%29.98 "HgN/A
10:50 pm46 °FOvercast.14 mph82%29.98 "HgN/A
10:20 pm46 °FOvercast.15 mph82%30.01 "HgN/A
9:50 pm46 °FMostly cloudy.14 mph82%30.01 "HgN/A
9:20 pm46 °FClear.14 mph82%30.01 "Hg10 mi
8:50 pm46 °FClear.14 mph82%30.01 "Hg10 mi
8:20 pm46 °FClear.14 mph82%30.01 "Hg10 mi
7:50 pm46 °FClear.12 mph82%30.01 "Hg10 mi
7:20 pm46 °FClear.13 mph82%30.01 "Hg10 mi
Weather by CustomWeather, © 2017

See weather overviewHow to use our weather pages